AirNav   Air Wisconsin Up To $57,000 Bonus
 
 1092 users online  

OL20 Whitehorn Cove Airport
Wagoner, Oklahoma, USA

GOING TO WAGONER?


FAA INFORMATION EFFECTIVE 01 DECEMBER 2022

Location

FAA Identifier: OL20
Lat/Long: 35-59-50.3580N 095-15-31.8580W
35-59.839300N 095-15.530967W
35.9973217,-95.2588494
(estimated)
Elevation: 568 ft. / 173.1 m (surveyed)
Variation: 06E (1985)
From city: 6 miles NE of WAGONER, OK
Time zone: UTC -6 (UTC -5 during Daylight Saving Time)
Zip code: 74467

Airport Operations

Airport use: Private use. Permission required prior to landing
Activation date: 11/1987
Control tower: no
ARTCC: KANSAS CITY CENTER
FSS: MC ALESTER FLIGHT SERVICE STATION
Attendance: UNATNDD
Wind indicator: yes
Segmented circle: no

Airport Communications

WX AWOS-3P at TQH (13 nm E): 118.425 (918-453-2729)
WX AWOS-3PT at H71 (14 nm N): 120.1 (918-476-0517)

Nearby radio navigation aids

VOR radial/distance  VOR name  Freq  Var
TULr107/28.3TULSA VORTAC114.4008E
OKMr050/34.7OKMULGEE VOR/DME114.9008E

 
NDB name  Hdg/Dist  Freq  Var  ID
SILOAM SPRINGS249/39.128404ESLG ... .-.. --.

Airport Services

Runway Information

Runway 17/35

Dimensions: 3000 x 100 ft. / 914 x 30 m
Surface: turf
RUNWAY 17  RUNWAY 35
Traffic pattern: leftleft
Obstructions: 20 ft. trees, 10 ft. from runway20 ft. trees, 10 ft. from runway

Runway 13/31

Dimensions: 2000 x 100 ft. / 610 x 30 m
Surface: turf
RUNWAY 13  RUNWAY 31
Traffic pattern: leftleft
Obstructions: 20 ft. trees, 10 ft. from runway20 ft. trees, 10 ft. from runway

Airport Ownership and Management from official FAA records

Ownership: Privately-owned
Owner: DEMK, LLC
34561 E 700 RD
WAGONER, OK 74467
Phone 918-462-3311
Manager: MARK PFEIFER
34561 E 700 RD
WAGONER, OK 74467
Phone 918-462-3311

Additional Remarks

FOR CD CTC TULSA APCH AT 918-831-6714/6720.

Instrument Procedures

There are no published instrument procedures at OL20.

Some nearby airports with instrument procedures:

H68 - Hefner-Easley Airport (4 nm SW)
KTQH - Tahlequah Municipal Airport (13 nm E)
H71 - Mid-America Industrial Airport (14 nm N)
KGCM - Claremore Regional Airport (21 nm NW)
KMKO - Muskogee-Davis Regional Airport (21 nm S)
 
Loc | Ops | Rwys | IFR | FBO | Links
Com | Nav | Svcs | Stats | Notes
Area around OL20 (Whitehorn Cove Airport)
 
Road maps at: MapQuest Bing Google
 
Aerial photo
WARNING: Photo may not be current or correct
Aerial photo of OL20 (Whitehorn Cove Airport)
Photo by Mike Fagan
Photo taken 14-Nov-2010
looking south.

Do you have a better or more recent aerial photo of Whitehorn Cove Airport that you would like to share? If so, please send us your photo.

 
Sectional chart

 
Airport distance calculator
Flying to Whitehorn Cove Airport? Find the distance to fly.

From to OL20

Sunrise and sunset
Times for 06-Dec-2022
 Local
(UTC-6)
 Zulu
(UTC)
Morning civil twilight06:5012:50
Sunrise07:1913:19
Sunset17:0623:06
Evening civil twilight17:3423:34

Current date and time
Zulu (UTC)  07-Dec-2022 03:52:14
Local (UTC-6)  06-Dec-2022 21:52:14
 
METAR
KTQH 
13nm E 
070335Z AUTO 33005KT 7SM OVC007 08/06 A3008 RMK AO2
KH71 
14nm N 
070335Z AUTO 35005KT 4SM BR BKN005 OVC012 07/07 A3008 RMK AO2
KGCM 
21nm NW 
070335Z AUTO 00000KT 2SM BR OVC004 07/07 A3008 RMK AO2
KMKO 
21nm S 
070253Z AUTO 36005KT 10SM OVC012 09/07 A3008 RMK AO2 SLP185 T00940072 53016
TAF
KTUL 
33nm W 
061736Z 0618/0718 32009KT 3SM -DZ BR OVC007 TEMPO 0618/0620 1SM BR OVC004 FM062100 35007KT P6SM OVC015 FM070600 02005KT 5SM BR OVC007 FM071500 03005KT P6SM OVC025
KRVS 
35nm W 
061736Z 0618/0718 32009KT 6SM BR OVC007 TEMPO 0618/0620 3SM BR OVC005 FM062100 35005KT P6SM OVC015 FM070600 02003KT 5SM BR OVC007 FM071500 03004KT P6SM OVC025
NOTAMs
Click for the latest NOTAMs
NOTAMs are issued by the DoD/FAA and will open in a separate window not controlled by AirNav.

 

 
 

Where to Eat: Catering, Restaurants, Food shops

  
 Business Name 
 
 Contact 
 
 Services / Description 
 
Distance
 
Comments
  
Whitehorn Cove Restaurant 918-462-7411
no information available

If you are affiliated with Whitehorn Cove Restaurant and would like to show here your services, contact info, web link, logo, and more, click here
1 mile  
   write
 

Would you like to see your business listed on this page?

 If your business provides an interesting product or service to pilots, flight crews, aircraft, or users of the Whitehorn Cove Airport, you should consider listing it here.  To start the listing process, click on the button below
 
Add a business
 

Other Pages about Whitehorn Cove Airport

Update a link
 
Copyright © AirNav, LLC. All rights reserved. Privacy Policy  Contact